Bydgoszcz Ignacy Jan Pade, Poland

1:54 PM CEST on April 19, 2018 (GMT +0200)
Szwederowo

Weather History for EPBY - January, 2018

Change the Weather History Date:

Friday, January 12, 2018

  Actual Average Record
Temperature  
Mean Temperature 30 °F -  
Max Temperature 33 °F - - ()
Min Temperature 28 °F - - ()
Degree Days  
Heating Degree Days 34    
Moisture  
Dew Point 27 °F    
Average Humidity 88    
Maximum Humidity 93    
Minimum Humidity 86    
Precipitation  
Precipitation 0.00 in - - ()
Sea Level Pressure  
Sea Level Pressure 30.43 in    
Wind  
Wind Speed 11 mph ()    
Max Wind Speed 16 mph    
Max Gust Speed -    
Visibility 5.2 miles    
Events Snow    
T = Trace of Precipitation, MM = Missing Value Source: Averaged Metar Reports

Daily Weather History Graph

Daily Weather History Graph

Search for Another Location

Airport or City:

Astronomy

Jan. 12, 2018 Rise Set
Actual Time 7:56 AM CET 3:56 PM CET
Civil Twilight 7:16 AM CET 4:37 PM CET
Nautical Twilight 6:32 AM CET 5:20 PM CET
Astronomical Twilight 5:50 AM CET 6:02 PM CET
Moon 3:30 AM CET (1/12) 12:57 PM CET (1/12)
Length of Visible Light 9h 20m
Length of Day
7h 59m
Waning Crescent, 18% of the Moon is Illuminated
Jan 12
Waning Crescent
Jan 17
New
Jan 24
First Quarter
Jan 31
Full
Feb 7
Last Quarter

Hourly Weather History & Observations

Time (CET) Temp. Windchill Dew Point Humidity Pressure Visibility Wind Dir Wind Speed Gust Speed Precip Events Conditions
12:00 AM 33.8 °F 26.4 °F 30.2 °F 87% 30.24 in 3.7 mi East 9.2 mph - N/A   Overcast
12:30 AM 33.8 °F 25.8 °F 30.2 °F 87% 30.27 in 3.7 mi ENE 10.4 mph - N/A Snow Light Snow
1:00 AM 33.8 °F 26.4 °F 30.2 °F 87% 30.27 in 3.7 mi ENE 9.2 mph - N/A Snow Light Snow
1:30 AM 33.8 °F 25.8 °F 30.2 °F 87% 30.27 in 4.3 mi ENE 10.4 mph - N/A Snow Light Snow
2:00 AM 33.8 °F 24.8 °F 30.2 °F 87% 30.27 in 4.3 mi East 12.7 mph - N/A Snow Light Snow
2:30 AM 32.0 °F 22.5 °F 30.2 °F 93% 30.27 in 3.7 mi East 12.7 mph - N/A Snow Light Snow
3:00 AM 32.0 °F 22.5 °F 30.2 °F 93% 30.30 in 4.3 mi East 12.7 mph - N/A   Overcast
3:30 AM 32.0 °F 22.1 °F 30.2 °F 93% 30.30 in 4.3 mi East 13.8 mph - N/A   Overcast
4:00 AM 32.0 °F 22.1 °F 30.2 °F 93% 30.30 in 4.3 mi East 13.8 mph - N/A   Overcast
4:30 AM 32.0 °F 22.5 °F 30.2 °F 93% 30.33 in 5.0 mi East 12.7 mph - N/A   Overcast
5:00 AM 32.0 °F 22.1 °F 28.4 °F 87% 30.33 in 5.0 mi East 13.8 mph - N/A   Overcast
5:30 AM 32.0 °F 22.1 °F 28.4 °F 87% 30.33 in 2.5 mi East 13.8 mph - N/A Snow Light Snow
6:30 AM 32.0 °F 23.0 °F 28.4 °F 87% 30.36 in 2.8 mi East 11.5 mph - N/A Snow Light Snow
7:00 AM 30.2 °F 20.2 °F 28.4 °F 93% 30.36 in 5.6 mi East 12.7 mph - N/A Snow Light Snow
8:00 AM 30.2 °F 19.8 °F 28.4 °F 93% 30.39 in 6.2 mi East 13.8 mph - N/A   Overcast
9:00 AM 30.2 °F 18.9 °F 26.6 °F 86% 30.42 in 6.2 mi East 16.1 mph - N/A   Overcast
9:30 AM 30.2 °F 18.9 °F 26.6 °F 86% 30.42 in 6.2 mi East 16.1 mph - N/A   Overcast
10:30 AM 30.2 °F 20.2 °F 26.6 °F 86% 30.45 in 6.2 mi East 12.7 mph - N/A   Overcast
11:00 AM 30.2 °F 19.8 °F 26.6 °F 86% 30.45 in 6.2 mi East 13.8 mph - N/A   Overcast
12:00 PM 28.4 °F 17.0 °F 24.8 °F 86% 30.45 in 6.2 mi East 15.0 mph - N/A   Overcast
1:00 PM 28.4 °F 17.5 °F 24.8 °F 86% 30.48 in 5.6 mi East 13.8 mph - N/A   Overcast
2:30 PM 28.4 °F 18.0 °F 24.8 °F 86% 30.48 in 5.0 mi East 12.7 mph - N/A   Overcast
3:30 PM 28.4 °F 17.5 °F 24.8 °F 86% 30.51 in 3.7 mi East 13.8 mph - N/A   Overcast
4:00 PM 28.4 °F 17.5 °F 24.8 °F 86% 30.51 in 3.1 mi East 13.8 mph - N/A   Overcast
4:30 PM 28.4 °F 16.6 °F 24.8 °F 86% 30.51 in 6.2 mi East 16.1 mph - N/A   Overcast
5:00 PM 28.4 °F 17.5 °F 24.8 °F 86% 30.54 in 5.6 mi East 13.8 mph - N/A   Overcast
5:30 PM 28.4 °F 17.0 °F 24.8 °F 86% 30.54 in 6.2 mi East 15.0 mph - N/A   Overcast
6:00 PM 28.4 °F 16.6 °F 24.8 °F 86% 30.54 in 6.2 mi East 16.1 mph - N/A   Overcast
6:30 PM 28.4 °F 18.0 °F 24.8 °F 86% 30.54 in 6.2 mi East 12.7 mph - N/A   Overcast
7:00 PM 28.4 °F 17.0 °F 24.8 °F 86% 30.54 in 6.2 mi East 15.0 mph - N/A   Overcast
7:30 PM 28.4 °F 16.6 °F 24.8 °F 86% 30.57 in 6.2 mi East 16.1 mph - N/A   Overcast
8:00 PM 28.4 °F 17.5 °F 24.8 °F 86% 30.57 in 6.2 mi East 13.8 mph - N/A   Overcast
8:30 PM 28.4 °F 17.0 °F 24.8 °F 86% 30.57 in 6.2 mi ESE 15.0 mph - N/A   Overcast
9:30 PM 28.4 °F 18.5 °F 24.8 °F 86% 30.57 in 6.2 mi ESE 11.5 mph - N/A   Overcast
10:30 PM 28.4 °F 18.0 °F 24.8 °F 86% 30.60 in 6.2 mi ESE 12.7 mph - N/A   Overcast
11:00 PM 28.4 °F 18.5 °F 24.8 °F 86% 30.60 in 6.2 mi ESE 11.5 mph - N/A   Overcast
11:30 PM 28.4 °F 18.0 °F 24.8 °F 86% 30.60 in 6.2 mi ESE 12.7 mph - N/A   Overcast